Powrót do katalogu

STARLINK-31215

AktywnyŁącznośćVLEO
NORAD 58872·PAYLOAD·🇺🇸 United States

Wystrzelony Jan 29, 2024 z Cape Canaveral Space Force Station

Loading…

Następne Przeloty (najbliższe 24 godziny)

TLE

ŚwieżeSource: CelesTrak SupGP

Epoka: Sep 15, 2026, 01:47 UTC

1 58872C 24019V   26258.07479167 -.00008420  00000+0 -30494-3 0  2586
2 58872  42.9997 259.1745 0001289 264.7611 278.4969 15.27584997    15

Śledź STARLINK-31215 w czasie rzeczywistym z AllMySat

Download on the App Store